| time (UTC) | temp F | wind direction | speed knots | gust knots | rain 1hr in | rain 24hr in | rain mn in | humidity % | barometer mb |
| 20260906230733 | 98 | 93 | 7.0 | 9.6 | 0.00 | 0.00 | 0.00 | 37 | 1012.6 |
| 20260906225734 | 98 | 108 | 3.5 | 5.2 | 0.00 | 0.00 | 0.00 | 38 | 1012.6 |
| 20260906223735 | 99 | 94 | 7.0 | 9.6 | 0.00 | 0.00 | 0.00 | 36 | 1012.6 |
| 20260906222833 | 99 | 107 | 2.6 | 3.5 | 0.00 | 0.00 | 0.00 | 36 | 1012.7 |
| 20260906221836 | 99 | 92 | 4.3 | 5.2 | 0.00 | 0.00 | 0.00 | 36 | 1012.8 |
| 20260906220834 | 99 | 125 | 3.5 | 7.0 | 0.00 | 0.00 | 0.00 | 37 | 1012.8 |
| 20260906214836 | 98 | 117 | 5.2 | 8.7 | 0.00 | 0.00 | 0.00 | 37 | 1013.1 |
| 20260906213835 | 97 | 45 | 4.3 | 6.1 | 0.00 | 0.00 | 0.00 | 38 | 1013.2 |
| 20260906211835 | 99 | 99 | 4.3 | 7.0 | 0.00 | 0.00 | 0.00 | 37 | 1013.5 |
| 20260906210834 | 99 | 129 | 3.5 | 6.1 | 0.00 | 0.00 | 0.00 | 37 | 1013.5 |
| 20260906205834 | 99 | 116 | 6.1 | 8.7 | 0.00 | 0.00 | 0.00 | 37 | 1013.6 |
| 20260906204933 | 99 | 105 | 6.1 | 8.7 | 0.00 | 0.00 | 0.00 | 37 | 1013.7 |
| 20260906203936 | 99 | 91 | 4.3 | 7.8 | 0.00 | 0.00 | 0.00 | 37 | 1013.8 |
| 20260906201934 | 98 | 96 | 6.1 | 9.6 | 0.00 | 0.00 | 0.00 | 39 | 1013.9 |
| 20260906200934 | 97 | 102 | 2.6 | 3.5 | 0.00 | 0.00 | 0.00 | 40 | 1014.1 |
| 20260906195935 | 97 | 93 | 5.2 | 7.8 | 0.00 | 0.00 | 0.00 | 40 | 1014.2 |
| 20260906195032 | 98 | 108 | 4.3 | 10.4 | 0.00 | 0.00 | 0.00 | 39 | 1014.2 |
| 20260906194036 | 97 | 156 | 6.1 | 10.4 | 0.00 | 0.00 | 0.00 | 40 | 1014.3 |
| 20260906191233 | 97 | 89 | 6.1 | 7.8 | 0.00 | 0.00 | 0.00 | 41 | 1014.7 |
| 20260906190235 | 97 | 96 | 6.1 | 10.4 | 0.00 | 0.00 | 0.00 | 41 | 1014.7 |
| 20260906185234 | 96 | 100 | 4.3 | 7.0 | 0.00 | 0.00 | 0.00 | 41 | 1014.9 |
| 20260906184333 | 96 | 101 | 4.3 | 7.0 | 0.00 | 0.00 | 0.00 | 41 | 1015.0 |
| 20260906183333 | 97 | 100 | 5.2 | 7.8 | 0.00 | 0.00 | 0.00 | 41 | 1015.1 |
| 20260906182333 | 95 | 95 | 2.6 | 5.2 | 0.00 | 0.00 | 0.00 | 42 | 1015.2 |
| 20260906181334 | 95 | 106 | 4.3 | 7.0 | 0.00 | 0.00 | 0.00 | 43 | 1015.4 |
| 20260906180335 | 96 | 133 | 6.1 | 9.6 | 0.00 | 0.00 | 0.00 | 43 | 1015.4 |
| 20260906175433 | 96 | 120 | 3.5 | 5.2 | 0.00 | 0.00 | 0.00 | 44 | 1015.6 |
| 20260906174433 | 95 | 90 | 1.7 | 2.6 | 0.00 | 0.00 | 0.00 | 45 | 1015.7 |
| 20260906173433 | 95 | 100 | 3.5 | 6.1 | 0.00 | 0.00 | 0.00 | 45 | 1016.0 |
| 20260906172532 | 94 | 83 | 6.1 | 8.7 | 0.00 | 0.00 | 0.00 | 46 | 1016.2 |
| 20260906171536 | 94 | 117 | 2.6 | 3.5 | 0.00 | 0.00 | 0.00 | 46 | 1016.2 |
| 20260906170633 | 95 | 104 | 4.3 | 6.1 | 0.00 | 0.00 | 0.00 | 46 | 1016.5 |
| 20260906165633 | 94 | 153 | 5.2 | 7.8 | 0.00 | 0.00 | 0.00 | 47 | 1016.5 |
| 20260906164636 | 94 | 77 | 4.3 | 5.2 | 0.00 | 0.00 | 0.00 | 49 | 1016.6 |
| 20260906163635 | 93 | 88 | 3.5 | 6.1 | 0.00 | 0.00 | 0.00 | 49 | 1016.5 |
| 20260906162635 | 93 | 61 | 5.2 | 7.8 | 0.00 | 0.00 | 0.00 | 50 | 1016.6 |
| 20260906160637 | 91 | 92 | 4.3 | 7.0 | 0.00 | 0.00 | 0.00 | 53 | 1016.5 |
| 20260906155734 | 91 | 83 | 3.5 | 6.1 | 0.00 | 0.00 | 0.00 | 53 | 1016.6 |
| 20260906154734 | 93 | 83 | 3.5 | 7.0 | 0.00 | 0.00 | 0.00 | 53 | 1016.7 |
| 20260906152733 | 90 | 86 | 3.5 | 4.3 | 0.00 | 0.00 | 0.00 | 57 | 1016.6 |
| 20260906151735 | 90 | 112 | 0.0 | 0.9 | 0.00 | 0.00 | 0.00 | 58 | 1016.4 |
| 20260906150734 | 89 | 67 | 1.7 | 3.5 | 0.00 | 0.00 | 0.00 | 59 | 1016.4 |
| 20260906145734 | 89 | 155 | 1.7 | 3.5 | 0.00 | 0.00 | 0.00 | 59 | 1016.4 |
| 20260906144735 | 88 | 157 | 0.0 | 0.9 | 0.00 | 0.00 | 0.00 | 60 | 1016.3 |
| 20260906143833 | 87 | 45 | 0.9 | 1.7 | 0.00 | 0.00 | 0.00 | 62 | 1016.2 |
| 20260906142835 | 86 | 114 | 0.0 | 0.0 | 0.00 | 0.00 | 0.00 | 63 | 1016.4 |
| 20260906141834 | 85 | 130 | 0.9 | 2.6 | 0.00 | 0.00 | 0.00 | 65 | 1016.3 |
| 20260906140833 | 85 | 123 | 0.9 | 2.6 | 0.00 | 0.00 | 0.00 | 66 | 1016.2 |
| 20260906135932 | 84 | 112 | 1.7 | 2.6 | 0.00 | 0.00 | 0.00 | 66 | 1016.3 |
| 20260906134934 | 84 | 135 | 0.0 | 1.7 | 0.00 | 0.00 | 0.00 | 67 | 1016.2 |
| 20260906132934 | 82 | 120 | 1.7 | 2.6 | 0.00 | 0.00 | 0.00 | 70 | 1016.0 |
| 20260906132032 | 81 | 99 | 2.6 | 3.5 | 0.00 | 0.00 | 0.00 | 71 | 1016.2 |
| 20260906131033 | 81 | 90 | 1.7 | 3.5 | 0.00 | 0.00 | 0.00 | 72 | 1016.2 |
| 20260906130036 | 80 | 92 | 1.7 | 3.5 | 0.00 | 0.00 | 0.00 | 73 | 1016.2 |
| 20260906125035 | 80 | 103 | 0.9 | 3.5 | 0.00 | 0.00 | 0.00 | 74 | 1016.0 |
| 20260906124133 | 79 | 99 | 2.6 | 3.5 | 0.00 | 0.00 | 0.00 | 74 | 1016.0 |
| 20260906123133 | 79 | 93 | 1.7 | 2.6 | 0.00 | 0.00 | 0.00 | 75 | 1016.0 |
| 20260906121134 | 79 | 113 | 0.9 | 1.7 | 0.00 | 0.00 | 0.00 | 75 | 1015.7 |
| 20260906120133 | 79 | 106 | 2.6 | 3.5 | 0.00 | 0.00 | 0.00 | 74 | 1015.6 |
| 20260906115135 | 79 | 112 | 0.9 | 1.7 | 0.00 | 0.00 | 0.00 | 74 | 1015.4 |
| 20260906114136 | 79 | 90 | 1.7 | 2.6 | 0.00 | 0.00 | 0.00 | 74 | 1015.3 |
| 20260906112134 | 79 | 135 | 1.7 | 2.6 | 0.00 | 0.00 | 0.00 | 74 | 1015.2 |
| 20260906111134 | 79 | 135 | 1.7 | 1.7 | 0.00 | 0.00 | 0.00 | 74 | 1015.2 |
| 20260906110135 | 79 | 151 | 1.7 | 2.6 | 0.00 | 0.00 | 0.00 | 74 | 1015.1 |
| 20260906105133 | 79 | 135 | 0.9 | 1.7 | 0.00 | 0.00 | 0.00 | 74 | 1015.0 |
| 20260906104135 | 79 | 90 | 0.9 | 1.7 | 0.00 | 0.00 | 0.00 | 74 | 1014.9 |
| 20260906103234 | 79 | 202 | 0.0 | 0.0 | 0.00 | 0.00 | 0.00 | 74 | 1015.0 |
| 20260906101334 | 79 | 157 | 0.0 | 0.0 | 0.00 | 0.00 | 0.00 | 74 | 1014.9 |
| 20260906100333 | 79 | 157 | 0.9 | 2.6 | 0.00 | 0.00 | 0.00 | 74 | 1014.6 |
| 20260906095335 | 79 | 180 | 2.6 | 3.5 | 0.00 | 0.00 | 0.00 | 74 | 1014.6 |
| 20260906094336 | 80 | 186 | 2.6 | 3.5 | 0.00 | 0.00 | 0.00 | 73 | 1014.5 |
| 20260906093433 | 80 | 164 | 1.7 | 2.6 | 0.00 | 0.00 | 0.00 | 73 | 1014.4 |
| 20260906092434 | 80 | 180 | 2.6 | 3.5 | 0.00 | 0.00 | 0.00 | 72 | 1014.3 |
| 20260906091433 | 80 | 180 | 1.7 | 3.5 | 0.00 | 0.00 | 0.00 | 72 | 1014.4 |
| 20260906090449 | 80 | 192 | 2.6 | 4.3 | 0.00 | 0.00 | 0.00 | 72 | 1014.3 |
| 20260906085433 | 80 | 183 | 3.5 | 5.2 | 0.00 | 0.00 | 0.00 | 72 | 1014.2 |
| 20260906084434 | 80 | 172 | 3.5 | 5.2 | 0.00 | 0.00 | 0.00 | 72 | 1014.2 |
| 20260906082534 | 81 | 191 | 4.3 | 6.1 | 0.00 | 0.00 | 0.00 | 70 | 1014.2 |
| 20260906081536 | 81 | 225 | 1.7 | 2.6 | 0.00 | 0.00 | 0.00 | 70 | 1014.2 |
| 20260906080534 | 81 | 186 | 3.5 | 4.3 | 0.00 | 0.00 | 0.00 | 70 | 1014.3 |
| 20260906075536 | 81 | 172 | 3.5 | 4.3 | 0.00 | 0.00 | 0.00 | 70 | 1014.6 |
| 20260906074534 | 82 | 175 | 0.9 | 2.6 | 0.00 | 0.00 | 0.00 | 69 | 1014.7 |
| 20260906073533 | 82 | 173 | 0.9 | 2.6 | 0.00 | 0.00 | 0.00 | 69 | 1014.7 |
| 20260906070551 | 83 | 187 | 3.5 | 5.2 | 0.00 | 0.00 | 0.00 | 68 | 1014.5 |
| 20260906065533 | 83 | 173 | 1.7 | 3.5 | 0.00 | 0.00 | 0.00 | 67 | 1014.6 |
| 20260906064535 | 83 | 159 | 4.3 | 7.0 | 0.00 | 0.00 | 0.00 | 67 | 1014.6 |
| 20260906063632 | 83 | 177 | 4.3 | 6.1 | 0.00 | 0.00 | 0.00 | 67 | 1014.7 |
| 20260906062635 | 83 | 176 | 2.6 | 3.5 | 0.00 | 0.00 | 0.00 | 67 | 1014.8 |
| 20260906061634 | 84 | 182 | 3.5 | 4.3 | 0.00 | 0.00 | 0.00 | 66 | 1014.8 |
| 20260906060635 | 84 | 181 | 3.5 | 5.2 | 0.00 | 0.00 | 0.00 | 66 | 1014.9 |
| 20260906055635 | 84 | 185 | 3.5 | 5.2 | 0.00 | 0.00 | 0.00 | 65 | 1014.8 |
| 20260906053636 | 84 | 186 | 2.6 | 3.5 | 0.00 | 0.00 | 0.00 | 64 | 1014.8 |
| 20260906052634 | 85 | 201 | 1.7 | 2.6 | 0.00 | 0.00 | 0.00 | 63 | 1014.8 |
| 20260906045640 | 86 | 169 | 5.2 | 7.0 | 0.00 | 0.00 | 0.00 | 62 | 1014.9 |
| 20260906043741 | 86 | 168 | 6.1 | 8.7 | 0.00 | 0.00 | 0.00 | 62 | 1014.7 |
| 20260906042741 | 86 | 160 | 2.6 | 6.1 | 0.00 | 0.00 | 0.00 | 62 | 1014.6 |
| 20260906041742 | 87 | 181 | 3.5 | 7.8 | 0.00 | 0.00 | 0.00 | 61 | 1014.6 |
| 20260906035742 | 87 | 163 | 3.5 | 5.2 | 0.00 | 0.00 | 0.00 | 61 | 1014.6 |
| 20260906034740 | 87 | 164 | 6.1 | 8.7 | 0.00 | 0.00 | 0.00 | 60 | 1014.5 |
| 20260906033742 | 87 | 141 | 2.6 | 3.5 | 0.00 | 0.00 | 0.00 | 60 | 1014.6 |
| 20260906032741 | 87 | 136 | 4.3 | 8.7 | 0.00 | 0.00 | 0.00 | 59 | 1014.8 |
| 20260906031744 | 88 | 136 | 5.2 | 7.8 | 0.00 | 0.00 | 0.00 | 58 | 1014.8 |
| 20260906030839 | 88 | 146 | 3.5 | 6.1 | 0.00 | 0.00 | 0.00 | 57 | 1014.7 |
| 20260906025840 | 88 | 127 | 3.5 | 4.3 | 0.00 | 0.00 | 0.00 | 56 | 1014.7 |
| 20260906024842 | 89 | 135 | 3.5 | 6.1 | 0.00 | 0.00 | 0.00 | 55 | 1014.5 |
| 20260906023841 | 89 | 105 | 2.6 | 4.3 | 0.00 | 0.00 | 0.00 | 54 | 1014.3 |
| 20260906022840 | 90 | 127 | 4.3 | 7.0 | 0.00 | 0.00 | 0.00 | 53 | 1014.1 |
| 20260906021841 | 90 | 107 | 4.3 | 7.0 | 0.00 | 0.00 | 0.00 | 51 | 1014.0 |
| 20260906015843 | 91 | 110 | 5.2 | 8.7 | 0.00 | 0.00 | 0.00 | 49 | 1013.6 |
| 20260906014843 | 92 | 128 | 5.2 | 10.4 | 0.00 | 0.00 | 0.00 | 48 | 1013.6 |
| 20260906013843 | 94 | 116 | 7.0 | 11.3 | 0.00 | 0.00 | 0.00 | 43 | 1013.3 |
| 20260906012839 | 94 | 124 | 4.3 | 6.1 | 0.00 | 0.00 | 0.00 | 42 | 1013.1 |
| 20260906005841 | 96 | 125 | 2.6 | 3.5 | 0.00 | 0.00 | 0.00 | 39 | 1012.7 |
| 20260906004841 | 96 | 130 | 3.5 | 5.2 | 0.00 | 0.00 | 0.00 | 38 | 1012.6 |
| 20260906001842 | 97 | 113 | 3.5 | 7.0 | 0.00 | 0.00 | 0.00 | 36 | 1012.7 |
| 20260906000940 | 98 | 101 | 4.3 | 6.1 | 0.00 | 0.00 | 0.00 | 36 | 1012.5 |
| 20260905235942 | 98 | 98 | 2.6 | 5.2 | 0.00 | 0.00 | 0.00 | 36 | 1012.4 |
| 20260905234941 | 98 | 130 | 3.5 | 4.3 | 0.00 | 0.00 | 0.00 | 36 | 1012.6 |
| 20260905233942 | 98 | 103 | 2.6 | 4.3 | 0.00 | 0.00 | 0.00 | 37 | 1012.4 |
| 20260905232941 | 98 | 91 | 2.6 | 4.3 | 0.00 | 0.00 | 0.00 | 36 | 1012.4 |
| 20260905232040 | 99 | 136 | 4.3 | 6.1 | 0.00 | 0.00 | 0.00 | 36 | 1012.4 |